Location: Heidenfeld
(49.9675°N, 10.2080°E)
Time: 07:11:55
(UTC+00:00)

Daily predictions for brighter satellites

Satellite Brightness Start Highest point End
(mag) Time Altitude Azimuth Time Altitude Azimuth Time Altitude Azimuth
Meteor 1-27 4.2 19:28:32 10° S 19:34:09 79° E 19:39:44 10° NNE
MetOp-B 4.3 19:34:29 10° SSE 19:39:51 84° WSW 19:45:15 10° NNW
Cosmos 1980 Rocket 3.5 19:37:30 10° NW 19:42:46 39° WSW 19:47:58 10° S
Cosmos 2061 Rocket 4.2 19:37:20 10° S 19:43:25 58° E 19:49:35 10° NNE
CZ-4 R/B 2.6 19:41:24 10° SSW 19:44:45 36° W 19:48:09 10° NNW
USA 186 2.1 19:43:03 10° SE 19:45:37 37° ENE 19:48:12 10° N
Cosmos 2228 2.8 19:41:54 10° S 19:45:59 77° E 19:50:06 10° NNE
COSMOS 2406 3.5 19:41:10 10° S 19:46:37 46° ESE 19:52:05 10° NE
SL-08 R/B 3.4 19:42:59 10° NNE 19:47:46 59° ESE 19:52:24 10° S
CZ-4B R/B 4.5 19:43:51 10° ESE 19:47:59 30° ENE 19:52:11 10° N
Cosmos 1933 4.4 19:45:32 10° SE 19:48:41 25° E 19:51:51 10° NNE
Cosmos 1743 3.6 19:46:22 10° NNW 19:49:10 35° W 19:51:57 10° SSW
ISS -3.4 19:46:30 10° W 19:49:50 68° N 19:53:11 10° ENE
Cosmos 1461 3.1 19:47:09 10° S 19:50:33 35° ESE 19:53:57 10° NE
Cosmos 1455 Rocket 3.6 19:46:26 10° SSW 19:50:47 64° WNW 19:55:09 10° N
Cosmos 1992 Rocket 4.0 19:45:47 10° S 19:50:55 63° ESE 19:56:04 10° NNE
Cosmos 1892 Rocket 4.4 19:47:11 10° NNW 19:51:22 49° W 19:55:30 10° SSW
SKYMED 3 4.3 19:47:40 10° NNE 19:51:39 78° ESE 19:55:36 10° S
Cosmos 1802 Rocket 4.3 19:45:37 10° SSW 19:51:46 72° W 19:57:56 10° N
Terra 2.3 19:48:10 10° S 19:52:48 61° W 19:57:28 10° NNW
Meteor 1-20 Rocket 4.5 19:48:03 10° N 19:53:34 55° ENE 19:59:08 10° SSE
Okean O Rocket 1.6 19:53:05 10° SSE 19:57:21 75° ENE 20:01:41 10° N
Cosmos 2333 Rocket 2.4 19:53:21 10° NNW 19:59:03 67° ENE 20:04:29 11° SE
NOSS 3-3 (A) 3.7 19:59:20 10° SW 20:04:32 88° SE 20:10:53 10° NE
Cosmos 1544 Rocket 3.7 20:00:21 10° S 20:04:33 52° E 20:08:45 10° NNE
Cosmos 1437 Rocket 3.0 20:03:39 10° SSE 20:07:00 42° E 20:10:26 10° NNE
Cosmos 2360 Rocket 2.7 20:03:31 10° NNW 20:09:03 50° NE 20:13:59 13° SE
Helios 1A Rocket 3.6 20:06:05 10° N 20:09:05 42° WNW 20:12:04 10° SW
CZ-4B R/B 4.1 20:07:43 10° S 20:13:12 50° W 20:18:38 10° NNW
EP 1 4.4 20:11:16 10° NW 20:13:51 64° NE 20:15:44 17° SE
Cosmos 2233 Rocket 4.2 20:09:10 10° SSW 20:15:21 75° W 20:21:32 10° N
Okean-O 2.8 20:15:13 10° S 20:19:33 69° WSW 20:23:56 10° NNW
Cosmos 1486 Rocket 4.2 20:14:22 10° NNW 20:19:37 62° ENE 20:23:55 15° SE
Cosmos 1758 Rocket 3.7 20:17:04 10° NNW 20:21:29 80° W 20:25:51 10° S
Cosmos 2219 Rocket 3.0 20:16:21 10° NNW 20:21:44 42° NE 20:26:24 13° ESE
Cosmos 909 Rocket 4.2 20:15:29 10° SW 20:21:47 84° NW 20:28:25 10° NE
CZ-2C R/B 3.3 20:21:09 17° ESE 20:22:32 25° ENE 20:24:55 10° N
DNEPR-1 R/B 4.4 20:24:08 10° NW 20:29:36 87° SW 20:34:57 16° SE
Nadezhda 4 Rocket 4.3 20:24:45 10° N 20:30:44 53° ENE 20:35:26 17° SSE
Meteor 1-25 Rocket 4.2 20:25:15 10° N 20:30:57 80° ENE 20:35:41 15° SSE
USA 245 4.3 20:25:40 12° SSE 20:31:06 86° ENE 20:36:35 10° NNW
IRS-1C Rocket 4.2 20:27:09 15° SSE 20:31:27 66° ENE 20:36:41 10° N
Cosmos 1825 Rocket 4.1 20:29:57 10° N 20:34:07 43° ENE 20:36:52 19° SE
Cosmos 1805 2.9 20:31:30 10° N 20:34:45 57° ENE 20:36:34 23° SSE
Cosmos 220 Rocket 3.8 20:32:57 10° SSW 20:36:58 68° ESE 20:41:04 10° NNE
NOSS 3-3 (C) 4.1 20:31:50 10° SW 20:37:10 72° NW 20:43:38 10° NE
Meteor 2-10 4.4 20:32:54 10° N 20:38:37 63° ENE 20:42:50 18° SSE
Cosmos 2322 Rocket 2.2 20:35:57 10° NNW 20:41:40 85° ENE 20:45:49 19° SSE
Cosmos 1602 Rocket 3.6 20:41:07 10° NNW 20:45:27 79° W 20:48:44 17° S
USA 306 3.5 20:43:42 10° WNW 20:46:05 25° N 20:47:38 11° NE
Cosmos 2082 Rocket 3.7 20:41:31 10° WSW 20:46:53 40° NW 20:52:15 10° NNE
NOSS 3-4 (A) 3.9 20:42:32 10° NW 20:49:13 79° SW 20:55:07 19° SSE
NOSS 3-4 (C) 3.9 20:43:11 10° NW 20:49:52 79° SW 20:55:45 19° SSE
Cosmos 1707 4.0 20:52:04 15° E 20:52:04 15° E 20:53:35 10° NE
CZ-4B R/B 2.8 20:49:58 20° S 20:52:09 60° WSW 20:55:37 10° NNW
Cosmos 2058 Rocket 4.4 20:53:53 19° ESE 20:55:17 23° E 20:58:41 10° NE
Cosmos 2151 3.9 20:51:44 10° NNW 20:55:38 42° W 20:59:05 12° SSW
Cosmos 2098 Rocket 3.0 20:53:24 15° S 20:57:18 82° E 21:01:23 10° N
Cosmos 1076 Rocket 3.7 20:54:00 10° N 20:58:11 54° ENE 21:00:20 26° SE
Cosmos 44 4.0 20:53:41 10° NW 20:59:02 55° NE 21:02:45 19° ESE
Cosmos 2237 Rocket 4.3 20:55:27 10° N 20:59:23 19° NE 21:03:19 10° E
CZ-4C R/B 4.4 20:56:40 10° WNW 21:00:50 27° NNW 21:06:01 10° NE
Ariane Rocket 3.1 20:59:02 19° S 21:02:42 72° WSW 21:07:47 10° NNW
Cosmos 2278 4.4 21:03:14 10° NW 21:08:41 47° WSW 21:12:37 18° S
SL-16 R/B 3.4 21:07:30 10° NW 21:12:36 35° WSW 21:16:43 15° SSW
Meteor 1-5 Rocket 4.5 21:07:41 10° NNW 21:13:25 70° W 21:17:38 20° S
SPOT 3 Rocket 4.3 21:09:24 15° S 21:13:25 47° W 21:18:22 10° NNW
COSMOS 2428 3.8 21:08:19 10° NNW 21:13:36 37° NE 21:17:37 16° ESE
Cosmos 1763 Rocket 3.5 21:10:53 18° S 21:14:43 63° ESE 21:19:56 10° NNE
USA 186 4.4 21:14:24 10° WSW 21:15:10 11° W 21:15:56 10° WNW
Cosmos 1470 4.4 21:13:11 10° NNE 21:15:21 16° ENE 21:16:07 15° E
ARIANE 5 R/B 4.5 21:15:19 14° E 21:17:41 20° ENE 21:20:57 10° NNE
USA 290 2.2 21:18:07 25° SSW 21:19:47 75° WNW 21:22:56 10° NNE
Cosmos 1606 Rocket 3.6 21:17:15 20° SSW 21:20:12 78° W 21:24:32 10° N
Cosmos 1898 Rocket 4.5 21:16:31 10° NNW 21:21:21 37° ENE 21:24:24 20° ESE
Cosmos 990 Rocket 3.9 21:18:09 10° NNW 21:23:21 85° WSW 21:26:04 29° SSE
Cosmos 1464 Rocket 4.1 21:18:41 13° SSW 21:24:11 76° W 21:30:24 10° N
Helios 1B rocket 3.2 21:24:22 26° E 21:25:22 31° ENE 21:28:30 10° N
CZ-4B R/B 4.3 21:23:16 18° SSW 21:26:27 41° W 21:31:04 10° NNW
ISS -3.7 21:23:26 10° WNW 21:26:48 78° NNE 21:28:15 31° E
Okean 1 3.1 21:25:54 29° SSW 21:27:37 71° W 21:31:13 10° N
Cosmos 1726 Rocket 3.3 21:25:49 28° S 21:27:52 87° WNW 21:31:57 10° N
BREEZE-M DEB (TANK) 1.7 21:26:25 10° W 21:28:12 43° W 21:28:12 43° W
Okean O Rocket 4.1 21:31:57 10° WSW 21:34:05 13° W 21:36:13 10° WNW
Cosmos 1536 2.8 21:32:25 10° N 21:36:04 57° ENE 21:36:59 43° SE
Cosmos-2242 2.8 21:37:47 39° SSE 21:39:12 70° E 21:43:18 10° NNE
Cosmos 1092 Rocket 3.9 21:35:46 10° N 21:41:59 84° E 21:45:20 29° SSE
Cosmos 2333 Rocket 3.9 21:38:23 10° NW 21:42:51 24° WSW 21:46:30 13° SSW
KORONAS-FOTON 3.7 21:43:53 47° ESE 21:44:06 48° E 21:47:24 10° NNE
Cosmos 2297 Rocket 3.7 21:46:14 18° ESE 21:46:59 18° E 21:50:43 10° ENE
Cosmos 841 Rocket 4.3 21:47:27 29° SE 21:48:37 33° ESE 21:53:15 10° NE
Cosmos 1833 4.3 21:44:12 11° SSW 21:49:35 79° WNW 21:55:15 10° NNE
Cosmos 2360 Rocket 3.4 21:47:50 10° NW 21:52:50 33° WSW 21:55:44 21° SSW
CZ-2C R/B 4.3 21:52:45 15° WSW 21:53:19 15° W 21:55:05 10° NW
Cosmos 1766 3.0 21:53:12 10° NNW 21:56:23 58° W 21:56:45 53° SW
Cosmos 1842 3.1 21:56:49 47° E 21:56:49 47° E 21:59:42 10° NNE
Cosmos 2322 3.7 21:51:52 10° NNW 21:57:36 75° ENE 22:00:18 32° SE
Cosmos 1975 3.3 21:55:09 10° N 21:58:38 39° ENE 21:59:14 36° E
Spot 4 4.4 21:57:15 30° ESE 21:59:09 46° ENE 22:03:45 10° N
Meteor 2-6 Rocket 4.4 21:58:28 33° SSE 22:01:11 65° E 22:07:04 10° NNE
Cosmos 2034 Rocket 4.4 21:58:35 18° SSW 22:03:25 60° WNW 22:09:42 10° N
Cosmos 372 Rocket 3.9 21:58:21 10° NNW 22:03:29 85° WSW 22:05:24 39° SSE
Cosmos 2221 3.1 22:03:18 36° ESE 22:03:56 39° E 22:07:51 10° NNE
Cosmos 2219 Rocket 3.0 22:00:24 10° NW 22:05:40 41° WSW 22:08:05 27° SSW
Cosmos 1271 Rocket 2.5 22:06:21 56° E 22:06:21 56° E 22:09:40 10° NNE
SL-08 ROCKET BODY 4.4 22:04:34 10° N 22:10:47 83° E 22:13:38 35° SSE
Cosmos 540 Rocket 4.1 22:07:44 14° SW 22:12:02 53° WNW 22:17:05 10° NNE
Helios 1A 3.1 22:12:56 10° N 22:16:49 61° WNW 22:18:07 37° SW
Cosmos 2279 Rocket 3.9 22:16:39 34° S 22:19:35 79° E 22:25:53 10° NNE
RESURS DK-1 2.1 22:16:09 10° NNW 22:20:09 80° WSW 22:20:45 61° S
Aureole 1 Rocket 4.4 22:15:50 10° NNW 22:21:31 53° WSW 22:24:34 31° SSW
Cosmos 1707 3.7 22:23:33 24° W 22:23:52 25° WNW 22:26:18 10° NNW
Cosmos 2322 Rocket 4.1 22:21:16 10° WNW 22:24:57 18° W 22:27:37 13° SW
Cosmos 1634 Rocket 4.1 22:22:33 27° SSW 22:26:01 70° WNW 22:32:15 10° N
Meteor 1-19 Rocket 4.4 22:24:38 38° SSE 22:26:49 63° E 22:32:42 10° NNE
Cosmos 1937 Rocket 3.4 22:23:14 10° NNW 22:28:25 87° ENE 22:30:09 43° SSE
TSX-5 4.2 22:27:17 10° NW 22:29:55 37° W 22:29:55 37° W
Geosat 4.3 22:27:27 10° NNE 22:32:25 66° NW 22:35:38 22° SW
SL-16 R/B 4.2 22:28:08 10° NNW 22:32:44 24° NE 22:37:17 10° E
Cosmos 2058 Rocket 4.0 22:30:59 26° SW 22:32:54 41° WNW 22:37:00 10° N
CZ-2C R/B 3.6 22:28:35 10° NNE 22:33:05 81° ESE 22:34:15 50° S
Cosmos 468 Rocket 4.4 22:30:13 23° SW 22:33:25 61° WNW 22:38:38 10° NNE
GP-B 3.6 22:31:09 10° NNE 22:35:21 44° E 22:36:11 39° ESE
Meteor 2-9 Rocket 4.2 22:34:03 10° NNW 22:39:27 73° W 22:41:24 41° S
Cosmos 44 4.4 22:35:12 10° NW 22:39:58 33° WSW 22:41:01 30° SW
CZ-2C R/B 3.5 22:39:10 25° ESE 22:41:39 40° ENE 22:46:28 10° N
Lacrosse 4 Rocket 2.8 22:42:43 23° E 22:42:43 23° E 22:45:21 10° ENE
Cosmos 2237 Rocket 2.4 22:38:51 10° NNW 22:44:32 68° ENE 22:47:09 32° SE
SeaSat 1 4.1 22:42:55 10° ESE 22:47:03 29° NE 22:51:14 10° NNW
USA 234 3.6 22:41:33 10° ENE 22:47:45 43° SE 22:49:36 36° S
Cosmos 2266 Rocket 3.9 22:41:56 10° N 22:48:00 84° E 22:50:26 39° SSE
Cosmos 1980 3.7 22:43:06 10° NNW 22:48:48 78° ENE 22:51:12 36° SE
Cosmos 1470 3.4 22:46:22 10° NNW 22:49:19 34° W 22:49:19 34° W
ATLAS 2AS CENTAUR R/B 4.4 22:46:41 10° NW 22:52:39 31° NNE 22:58:35 10° E
Intercosmos 24 3.9 22:49:21 10° N 22:53:09 55° ENE 22:53:29 53° ESE
ARIANE 5 R/B 2.9 22:52:41 47° SW 22:53:35 57° W 22:58:01 10° NNW
ALOS 2 2.7 22:54:46 52° SSW 22:55:37 66° WSW 23:00:01 10° NNW
Cosmos 2227 Rocket 3.4 22:55:49 25° ESE 22:56:57 27° ESE 23:01:37 10° NE
COSMOS 2428 3.2 22:52:32 10° NW 22:57:59 47° WSW 22:59:34 37° SSW
Helios 1B rocket 3.8 22:58:18 22° W 22:58:23 22° W 23:01:10 10° NW
Meteor 2-4 Rocket 4.1 23:00:13 36° SE 23:01:52 47° E 23:07:10 10° NNE
BlueWalker 3 3.9 23:05:21 17° E 23:05:21 17° E 23:06:21 10° ENE
Cosmos 1898 Rocket 4.3 22:58:33 10° NW 23:03:20 38° WSW 23:04:34 33° SW
ISS -1.4 23:00:22 10° W 23:01:11 16° W 23:01:11 16° W
Cosmos 2263 Rocket 3.7 23:03:56 19° ESE 23:05:07 20° E 23:09:03 10° NE
CZ-2C R/B 3.5 23:01:42 10° NNE 23:07:26 62° E 23:09:26 40° SSE
Meteor 1-11 Rocket 3.8 23:02:43 10° NNW 23:08:19 65° W 23:10:10 41° SSW
Cosmos 1766 Rocket 3.6 23:04:59 10° N 23:09:17 67° ENE 23:10:08 52° SE
SAR-Lupe-2 3.9 23:10:57 49° W 23:10:57 49° W 23:13:54 10° NNW
Meteor 1-10 Rocket 4.4 23:11:29 36° SSW 23:13:58 73° WNW 23:19:56 10° N
Cosmos 1238 Rocket 2.9 23:14:04 58° SE 23:14:34 64° E 23:18:56 10° NNE
PSLV R/B 3.7 23:11:55 10° N 23:16:12 67° WNW 23:17:16 48° SW
Cosmos 1655 Rocket 4.0 23:15:14 10° N 23:21:31 77° E 23:24:15 36° SSE
Cosmos 192 4.4 23:17:42 10° NNW 23:22:40 75° ENE 23:24:20 42° SE
Cosmos 1814 Rocket 4.4 23:21:58 39° SE 23:23:11 47° ESE 23:28:13 10° NNE
Alouette 2 Rocket 3.5 23:23:19 10° NNW 23:27:09 84° ENE 23:28:18 50° SSE
Meteor 1-27 Rocket 3.7 23:25:49 40° SSW 23:28:01 83° W 23:33:48 10° N
Meteor 2-10 Rocket 3.8 23:24:18 10° N 23:29:50 71° ENE 23:32:13 36° SSE
Cosmos 841 Rocket 4.4 23:27:23 23° WSW 23:30:16 43° WNW 23:35:17 10° NNE
Cosmos 2297 Rocket 2.2 23:27:59 38° SW 23:30:17 83° WNW 23:35:59 10° NNE
SL-14 R/B 4.0 23:39:49 37° ESE 23:40:13 38° E 23:43:46 10° NNE
Cosmos 2221 4.2 23:39:35 19° W 23:41:06 23° WNW 23:44:28 10° NNW
Cosmos 158 Rocket 4.0 23:39:40 45° S 23:41:19 74° ESE 23:46:39 10° NNE
CZ-4C R/B 3.8 23:38:33 10° NNE 23:41:47 40° E 23:41:47 40° E
ACS3 Solar Sail 2.3 23:37:51 10° NNE 23:43:36 46° E 23:46:10 30° SSE
MetOp-A 4.3 23:42:38 41° SW 23:43:38 47° W 23:48:09 10° NNW
Landsat 5 3.3 23:43:50 10° NNE 23:47:54 71° ESE 23:48:28 60° SSE
